Back to catalog

DELTA 1 DEB

AliveSSO
NORAD 9042·DEBRIS·🇺🇸 United States

Launched Jan 22, 1975 from Vandenberg Space Force Base

Loading…

Next Passes (next 24 hours)

TLE

FreshSource: Space-Track

Epoch: Sep 14, 2026, 07:08 UTC

1 09042U 75004DG  26257.29785418  .00000156  00000-0  58727-4 0  9992
2 09042  97.9909 199.8332 0061689 148.8336 211.6537 14.41870564652499

Track DELTA 1 DEB in real time with AllMySat

Download on the App Store